Hourly Weather Roundup
Issued by NWS Central Illinois

Home | Current Version | Previous Version | Text Only | Print | Product List | Glossary On
Versions: 1 2 3 4 5 6 7 8 9 10 11 12 13 14 15 16 17 18 19 20 21 22 23 24 25 26 27 28 29 30 31 32 33 34 35 36 37 38 39 40 41 42 43 44 45 46 47 48 49 50
000
NZUS43 KILX 261611
HWRILX

Area Weather Roundup
National Weather Service Lincoln IL
1100 AM CDT FRI MAY 26 2017

NOTE:  "FAIR" indicates few or no clouds below 12,000 feet, with
       no sigificant weather and/or obstructions to visibility.


CITY           SKY/WX    TMP DP  RH WIND       PRES   REMARKS
Bloomington    CLOUDY    69  59  70 SE18      29.77R
Champaign      CLOUDY    70  60  70 SE17      29.77F
Danville       CLOUDY    70  58  67 SE10G18   29.79F
Decatur        CLOUDY    72  61  68 SE18      29.75F
Effingham      CLOUDY    73  63  72 SE16G23   29.78F
Flora          CLOUDY    76  62  62 S14       29.82F
Galesburg      CLOUDY    68  58  72 S9        29.76R
Jacksonville   PTSUNNY   70  62  75 SW9       29.77R
Lacon          CLOUDY    70  57  64 E12       29.73S
Lawrenceville  CLOUDY    74  62  66 SE8       29.87F
Litchfield     SUNNY     72  63  72 S10G17    29.75S
$$


CITY           SKY/WX    TMP DP  RH WIND       PRES   REMARKS
Lincoln        PTSUNNY   74  62  66 SE13G18   29.74R
Macomb         MOSUNNY   68  60  75 SW6       29.77S
Mattoon        CLOUDY    73  63  70 SE14G21   29.78F
Mt Carmel AP     N/A     73  60  64 SE7       29.86S
Olney-Noble AP MOSUNNY   76  64  67 SE10      29.85F
Paris AP       CLOUDY    70  61  73 SE13G18   29.83F
Peoria         CLOUDY    72  59  63 SE14G20   29.75R
Pontiac        MOSUNNY   72  59  64 E15       29.79R
Rantoul        CLOUDY    71  61  71 SE16      29.77F
Robinson       CLOUDY    72  62  69 SE7       29.87S
Springfield    SUNNY     74  64  71 SW13      29.78R
Taylorville    SUNNY     73  63  71 S15G23    29.75S
$$

...REGIONAL REPORTS...


CITY           SKY/WX    TMP DP  RH WIND       PRES   REMARKS
Chicago O`Hare CLOUDY    69  54  58 E14       29.82F
Kankakee       CLOUDY    71  57  61 E16       29.79F
Moline         CLOUDY    71  54  54 SE12      29.74R
Mount Sterling SUNNY     73  63  70 SW13      29.75S
Mount Vernon     N/A     74  62  66 E8        29.77F
Pittsfield     SUNNY     72  65  77 SW10      29.78S
Quincy         PTSUNNY   74  64  71 S10       29.73S
Rockford       CLOUDY    68  57  68 SE14      29.81F
$$


CITY           SKY/WX    TMP DP  RH WIND       PRES   REMARKS
Burlington     CLOUDY    66  59  78 E5        29.73F
Cedar Rapids   HVY RAIN  58  58 100 SE8       29.76F FOG
Des Moines     CLOUDY    69  60  73 N8        29.73S
Kirksville     PTSUNNY   74  65  73 SW8       29.74R
Ottumwa        LGT RAIN  60  60 100 E8        29.72F
St Louis       MOSUNNY   81  63  54 SW12      29.75R HX  82
$$


CITY           SKY/WX    TMP DP  RH WIND       PRES   REMARKS
Terre Haute    PTSUNNY   72  58  61 S8        29.85F
Evansville     PTSUNNY   75  59  57 S13       29.86F
Indianapolis   PTSUNNY   71  57  61 S6        29.89F
Lafayette      MOSUNNY   70  60  70 VRB6      29.85F
Madison        CLOUDY    67  57  70 SE10      29.81S
Milwaukee      CLOUDY    58  53  84 SE6       29.87S
$$






USA.gov is the U.S. government's official web portal to all federal, state and local government web resources and services.